Погода в Дубровке

Россия / Челябинская область     55°26′16″N   61°38′56″E
темп.,
°C
ветер,
м/с
пор.,
м/с
влажн.,
%
обл.,
%
осадки,
мм/ч
давл.,
гПа
погр.,
м
21 июня, пн
пн2123:00+13с7143933 0.0 1015642
02:00+11ссз7164329 0.0 1017603
05:00+9ссз714540 0.0 1019620
08:00+12ссз711595 0.0 1020664
11:00+16с795427 0.0 10211374
14:00+18с574981 0.0 10211648
17:00+19с364588 0.0 10211889
20:00+17вюв2259100 0.0 102015
22 июня, вт
вт2223:00+13ююз3364100 0.0 102143
02:00+14юз3660100 0.0 1020121
05:00+13зсз347292 0.0 102076
08:00+17зсз466699 0.0 1019373
11:00+15зюз238472 0.1 101895
14:00+23з356434 0.1 10171047
17:00+25ссз595739 0.4 10151561
20:00+22ссв358098 0.1 1014145
23 июня, ср
ср2323:00+18св348830 0.3 101568
02:00+16ссв229366 0.4 101516
05:00+13всв51293100 0.7 1018508
08:00+12ссв3792100 0.0 1020477
11:00+16с346573 0.0 10201099
14:00+20ссв45454 0.0 10191916
17:00+20ссв34450 0.0 10191761
20:00+18всв11620 0.0 101811
24 июня, чт
чт2423:00+13зюз22650 0.0 101911
02:00+11з34710 0.0 101845
05:00+11зсз33855 0.0 101837
08:00+17сз34665 0.0 1017293
11:00+21зсз3449100 0.0 10161054
14:00+23сз3554100 0.0 10151218
17:00+24ссз465486 0.1 10151413
20:00+21зсз237299 0.1 101465
25 июня, пт
пт2523:00+17зсз33885 0.1 101431
02:00+16зсз359383 0.0 101468
05:00+16зсз3593100 0.0 101395
08:00+20з6106172 0.0 1011361
11:00+23зсз7107146 0.6 1010825
14:00+28сз595571 0.5 10082016
17:00+28сз585898 0.6 10081419
20:00+24с227568 0.8 100927